Date String (YYYY-MM-DD hh:mm:ss) UTC,Instrument flags,Ambient pressure (hPa),Sample flow (lpm),Bypass flow (lpm),Sample temperature (°C),Ambient temperature (°C),ASC tube jacket temperature (°C),LED temperature (°C),Box temperature (°C),Sample RH (%),Span deviation,Mass concentration (μg/m³),Mass concentration (μg/m³),Mass concentration (μg/m³)
DateTimeUTC,F1_M11,P_M11,Q1_M11,Q2_M11,T1_M11,T2_M11,T3_M11,T4_M11,T5_M11,U1_M11,ZSPAN_M11,X0_M11,X2_M11,X1_M11
2023-02-25 14:00:00,,0824.7,5.03,0.00,22.1,21.8,00.0,30.8,23.8,10.2,0000.0,0007.57,0004.28,0004.06
2023-02-25 14:01:00,,0824.6,5.01,0.00,22.1,21.3,00.0,30.8,23.7,10.2,0000.0,0006.61,0004.00,0003.78
2023-02-25 14:02:00,,0824.6,5.02,0.00,22.0,20.9,00.0,30.8,23.6,10.4,0000.0,0006.11,0003.74,0003.53
2023-02-25 14:03:00,,0824.5,5.00,0.00,22.0,20.5,00.0,30.8,23.5,10.2,0000.0,0005.67,0003.53,0003.33
2023-02-25 14:04:00,,0824.6,4.99,0.00,21.9,20.3,00.0,30.8,23.4,10.6,0000.0,0005.08,0003.25,0003.02
2023-02-25 14:05:00,,0824.6,4.99,0.00,21.9,20.1,00.0,30.8,23.3,10.8,0000.0,0004.55,0002.89,0002.57
2023-02-25 14:06:00,,0824.7,4.99,0.00,21.8,19.9,00.0,30.7,23.2,10.8,0000.0,0005.29,0002.50,0002.17
2023-02-25 14:07:00,,0824.7,5.00,0.00,21.8,19.8,00.0,30.7,23.2,10.9,0000.0,0004.98,0002.28,0001.96
2023-02-25 14:08:00,,0824.6,5.00,0.00,21.7,19.6,00.0,30.7,23.1,11.0,0000.0,0004.44,0002.02,0001.73
2023-02-25 14:09:00,,0824.6,5.01,0.00,21.6,19.8,00.0,30.6,23.1,10.5,0000.0,0004.29,0001.88,0001.59
2023-02-25 14:10:00,,0824.6,4.99,0.00,21.7,21.1,00.0,30.6,23.4,10.3,0000.0,0004.34,0001.82,0001.55
2023-02-25 14:11:00,,0824.6,4.98,0.00,21.9,22.5,00.0,30.6,23.8,10.4,0000.0,0004.34,0001.82,0001.56
2023-02-25 14:12:00,,0824.7,4.96,0.00,22.0,22.8,00.0,30.6,24.0,10.3,0000.0,0004.22,0001.72,0001.48
2023-02-25 14:13:00,,0824.6,4.99,0.00,22.0,22.1,00.0,30.7,23.8,10.2,0000.0,0004.36,0001.74,0001.46
2023-02-25 14:14:00,,0824.7,4.97,0.00,22.0,21.4,00.0,30.7,23.6,10.0,0000.0,0004.43,0001.76,0001.45
2023-02-25 14:15:00,,0824.6,5.00,0.00,21.9,21.0,00.0,30.7,23.5,10.1,0000.0,0004.40,0001.76,0001.45
2023-02-25 14:16:00,,0824.7,5.03,0.00,21.9,20.6,00.0,30.7,23.5,10.3,0000.0,0004.45,0001.80,0001.49
2023-02-25 14:17:00,,0824.7,5.02,0.00,21.9,20.4,00.0,30.7,23.4,10.2,0000.0,0003.38,0001.82,0001.52
2023-02-25 14:18:00,,0824.6,5.00,0.00,21.8,20.2,00.0,30.7,23.4,10.1,0000.0,0002.75,0001.81,0001.53
2023-02-25 14:19:00,,0824.6,5.00,0.00,21.8,20.0,00.0,30.7,23.3,10.5,0000.0,0002.72,0001.77,0001.49
2023-02-25 14:20:00,,0824.7,5.01,0.00,21.7,19.8,00.0,30.6,23.2,10.4,0000.0,0002.62,0001.69,0001.40
2023-02-25 14:21:00,,0824.8,5.01,0.00,21.7,19.7,00.0,30.6,23.1,10.8,0000.0,0002.34,0001.59,0001.31
2023-02-25 14:22:00,,0824.8,5.01,0.00,21.6,19.6,00.0,30.6,23.0,11.1,0000.0,0002.22,0001.50,0001.24
2023-02-25 14:23:00,,0824.9,5.03,0.00,21.6,20.8,00.0,30.5,23.3,10.7,0000.0,0002.15,0001.46,0001.20
2023-02-25 14:24:00,,0824.9,5.00,0.00,21.8,22.3,00.0,30.6,23.7,10.6,0000.0,0002.03,0001.40,0001.15
2023-02-25 14:25:00,,0824.9,5.08,0.00,21.9,22.4,00.0,30.6,23.8,10.8,0000.0,0001.89,0001.30,0001.08
2023-02-25 14:26:00,,0824.9,5.01,0.00,21.9,21.7,00.0,30.6,23.7,10.8,0000.0,0001.83,0001.25,0001.03
2023-02-25 14:27:00,,0824.9,5.02,0.00,21.9,21.2,00.0,30.6,23.6,10.5,0000.0,0001.80,0001.20,0000.97
2023-02-25 14:28:00,,0824.9,5.01,0.00,21.8,20.8,00.0,30.6,23.4,10.8,0000.0,0001.74,0001.14,0000.90
2023-02-25 14:29:00,,0824.9,4.98,0.00,21.8,20.5,00.0,30.6,23.3,10.5,0000.0,0001.67,0001.11,0000.85
2023-02-25 14:30:00,,0824.9,5.03,0.00,21.8,20.4,00.0,30.6,23.3,10.1,0000.0,0001.71,0001.13,0000.85
2023-02-25 14:31:00,,0824.9,4.99,0.00,21.7,20.1,00.0,30.6,23.3,10.5,0000.0,0001.67,0001.11,0000.84
2023-02-25 14:32:00,,0824.9,5.00,0.00,21.7,20.0,00.0,30.6,23.2,10.5,0000.0,0001.68,0001.12,0000.84
2023-02-25 14:33:00,,0824.9,5.00,0.00,21.7,19.9,00.0,30.6,23.2,10.4,0000.0,0001.68,0001.12,0000.84
2023-02-25 14:34:00,,0824.9,5.00,0.00,21.6,19.8,00.0,30.5,23.2,10.8,0000.0,0001.59,0001.09,0000.83
2023-02-25 14:35:00,,0824.9,5.00,0.00,21.6,19.8,00.0,30.5,23.2,10.9,0000.0,0001.46,0001.02,0000.80
2023-02-25 14:36:00,,0824.9,5.00,0.00,21.6,19.8,00.0,30.5,23.2,11.0,0000.0,0001.42,0000.99,0000.78
2023-02-25 14:37:00,,0824.9,4.98,0.00,21.7,21.3,00.0,30.5,23.4,10.9,0000.0,0001.45,0001.00,0000.77
2023-02-25 14:38:00,,0824.9,5.03,0.00,21.8,22.7,00.0,30.5,23.7,10.7,0000.0,0001.80,0000.99,0000.77
2023-02-25 14:39:00,,0824.9,4.99,0.00,21.9,22.6,00.0,30.6,23.8,10.7,0000.0,0001.95,0000.97,0000.77
2023-02-25 14:40:00,,0824.9,4.99,0.00,21.9,21.9,00.0,30.6,23.8,10.9,0000.0,0002.02,0000.99,0000.76
2023-02-25 14:41:00,,0824.9,5.00,0.00,21.9,21.4,00.0,30.6,23.7,10.9,0000.0,0001.90,0000.91,0000.71
2023-02-25 14:42:00,,0824.9,5.01,0.00,21.9,21.0,00.0,30.6,23.5,10.8,0000.0,0001.85,0000.87,0000.68
2023-02-25 14:43:00,,0825.0,5.00,0.00,21.9,20.7,00.0,30.6,23.4,10.7,0000.0,0001.96,0000.87,0000.66
2023-02-25 14:44:00,,0825.0,5.02,0.00,21.8,20.4,00.0,30.6,23.3,10.9,0000.0,0002.12,0000.90,0000.64
2023-02-25 14:45:00,,0824.9,4.98,0.00,21.8,20.2,00.0,30.6,23.3,11.0,0000.0,0002.15,0000.90,0000.62
2023-02-25 14:46:00,,0825.0,5.01,0.00,21.7,20.1,00.0,30.6,23.3,10.9,0000.0,0002.25,0000.94,0000.61
2023-02-25 14:47:00,,0824.9,5.01,0.00,21.7,20.0,00.0,30.6,23.3,11.1,0000.0,0002.27,0000.95,0000.62
2023-02-25 14:48:00,,0824.9,5.00,0.00,21.7,19.9,00.0,30.6,23.2,11.2,0000.0,0002.26,0000.96,0000.62
2023-02-25 14:49:00,,0824.9,5.01,0.00,21.6,19.8,00.0,30.5,23.2,11.3,0000.0,0002.10,0000.94,0000.60
2023-02-25 14:50:00,,0824.9,5.02,0.00,21.6,19.8,00.0,30.5,23.2,11.3,0000.0,0001.73,0000.95,0000.60
2023-02-25 14:51:00,,0824.9,4.99,0.00,21.6,20.0,00.0,30.5,23.2,11.4,0000.0,0001.65,0000.90,0000.58
2023-02-25 14:52:00,,0824.9,4.99,0.00,21.7,21.5,00.0,30.5,23.5,11.4,0000.0,0001.64,0000.89,0000.57
2023-02-25 14:53:00,,0825.0,4.96,0.00,21.8,22.9,00.0,30.5,23.8,11.3,0000.0,0001.66,0000.90,0000.58
2023-02-25 14:54:00,,0824.9,4.97,0.00,21.9,22.7,00.0,30.6,23.9,11.1,0000.0,0001.56,0000.88,0000.57
2023-02-25 14:55:00,,0824.9,5.01,0.00,22.0,22.1,00.0,30.6,23.8,11.1,0000.0,0001.40,0000.83,0000.57
2023-02-25 14:56:00,,0824.9,4.99,0.00,22.0,21.6,00.0,30.7,23.7,11.1,0000.0,0001.34,0000.81,0000.57
2023-02-25 14:57:00,,0825.0,5.02,0.00,22.0,21.2,00.0,30.7,23.7,11.2,0000.0,0001.33,0000.80,0000.55
2023-02-25 14:58:00,,0825.0,4.99,0.00,21.9,20.9,00.0,30.7,23.6,11.2,0000.0,0001.32,0000.78,0000.55
2023-02-25 14:59:00,,0824.9,4.98,0.00,21.9,20.8,00.0,30.7,23.6,11.6,0000.0,0001.36,0000.77,0000.54
